Location: Unspecified
(0.0000°N, 0.0000°E)
Time: 01:57:32
(UTC+00:00)

Vanguard 1 - Pass Details

Date: 13 December 2018
Orbit: 650 x 3833 km, 34.3° (Epoch: 16 January)

Event Time Altitude Azimuth Distance (km) Brightness Sun altitude
Rises 18:07:31 0° 273° (W) 7,494 15.9 -3.0°
Reaches altitude 10° 18:13:34 10° 263° (W) 6,739 15.9 -4.4°
Maximum altitude 18:32:25 30° 209° (SSW) 5,298 14.4 -8.8°
Drops below altitude 10° 18:49:21 10° 153° (SSE) 5,975 14.0 -12.6°
Sets 18:54:25 0° 142° (SE) 6,563 14.1 -13.8°
